Date String (YYYY-MM-DD hh:mm:ss) UTC,Instrument flags,absolute air pressure of the measurement (hPa),sample flow rate (lpm),inlet stack bypass flow (lpm),air temperature of the measurement (°C),ambient temperature measured by the external sensor (°C),aerosol sample conditioner tube jacket temperature (°C),OPC LED temperature (°C),internal box temperature (°C),relative humidity of the measurement (%),span deviation,mass concentration of particles derived from Lorenz-Mie calculation of OPC scattering (μg/m³),mass concentration of particles derived from Lorenz-Mie calculation of OPC scattering (μg/m³),mass concentration of particles derived from Lorenz-Mie calculation of OPC scattering (μg/m³)
DateTimeUTC,F1_M11,P_M11,Q1_M11,Q2_M11,T1_M11,T2_M11,T3_M11,T4_M11,T5_M11,U1_M11,ZSPAN_M11,X0_M11,X2_M11,X1_M11
2023-10-16 17:00:00,SystemResetWarning,0838.2,5.00,000.00,029.0,026.8,000.0,037.7,030.5,15.0,0000.0,0008.29,0003.34,0002.91
2023-10-16 17:01:00,SystemResetWarning,0838.2,5.00,000.00,029.0,027.0,000.0,037.6,030.6,14.9,0000.0,0008.30,0003.35,0002.89
2023-10-16 17:02:00,SystemResetWarning,0838.2,5.00,000.00,029.0,027.2,000.0,037.6,030.6,14.8,0000.0,0008.04,0003.29,0002.85
2023-10-16 17:03:00,SystemResetWarning,0838.2,5.00,000.00,029.1,027.4,000.0,037.6,030.7,14.7,0000.0,0008.01,0003.28,0002.84
2023-10-16 17:04:00,SystemResetWarning,0838.2,4.98,000.00,029.1,027.5,000.0,037.6,030.7,14.6,0000.0,0008.02,0003.29,0002.83
2023-10-16 17:05:00,SystemResetWarning,0838.2,4.99,000.00,029.1,027.6,000.0,037.6,030.7,14.7,0000.0,0008.32,0003.33,0002.82
2023-10-16 17:06:00,SystemResetWarning,0838.1,5.01,000.00,029.1,027.7,000.0,037.6,030.8,14.6,0000.0,0008.38,0003.33,0002.81
2023-10-16 17:07:00,SystemResetWarning,0838.0,5.01,000.00,029.1,027.8,000.0,037.6,030.8,14.5,0000.0,0008.42,0003.34,0002.81
2023-10-16 17:08:00,SystemResetWarning,0837.9,5.01,000.00,029.2,027.9,000.0,037.6,030.8,14.6,0000.0,0007.26,0003.35,0002.83
2023-10-16 17:09:00,SystemResetWarning,0837.9,4.98,000.00,029.2,027.9,000.0,037.6,030.8,14.6,0000.0,0006.70,0003.33,0002.83
2023-10-16 17:10:00,SystemResetWarning,0838.0,5.00,000.00,029.2,028.0,000.0,037.6,030.9,14.6,0000.0,0006.45,0003.31,0002.85
2023-10-16 17:11:00,SystemResetWarning,0838.0,5.02,000.00,029.2,028.0,000.0,037.6,030.9,14.7,0000.0,0006.11,0003.30,0002.87
2023-10-16 17:12:00,SystemResetWarning,0838.0,5.00,000.00,029.3,028.1,000.0,037.7,030.9,14.6,0000.0,0006.35,0003.33,0002.89
2023-10-16 17:13:00,SystemResetWarning,0838.0,4.99,000.00,029.3,028.1,000.0,037.7,031.0,14.7,0000.0,0007.57,0003.34,0002.90
2023-10-16 17:14:00,SystemResetWarning,0838.0,4.99,000.00,029.3,028.2,000.0,037.7,031.0,14.7,0000.0,0007.61,0003.36,0002.91
2023-10-16 17:15:00,SystemResetWarning,0838.0,5.01,000.00,029.3,028.2,000.0,037.7,031.0,14.6,0000.0,0007.64,0003.37,0002.91
2023-10-16 17:16:00,SystemResetWarning,0838.0,4.99,000.00,029.3,027.2,000.0,037.7,031.0,14.3,0000.0,0007.41,0003.34,0002.92
2023-10-16 17:17:00,SystemResetWarning,0837.9,5.00,000.00,029.3,025.5,000.0,037.6,030.8,14.3,0000.0,0007.34,0003.34,0002.93
2023-10-16 17:18:00,SystemResetWarning,0837.8,5.01,000.00,029.2,025.0,000.0,037.5,030.7,14.5,0000.0,0007.42,0003.33,0002.94
2023-10-16 17:19:00,SystemResetWarning,0837.8,5.00,000.00,029.1,025.2,000.0,037.5,030.5,14.8,0000.0,0007.47,0003.36,0002.94
2023-10-16 17:20:00,SystemResetWarning,0837.8,5.00,000.00,029.0,025.5,000.0,037.5,030.4,15.6,0000.0,0007.57,0003.38,0002.94
2023-10-16 17:21:00,SystemResetWarning,0837.8,5.00,000.00,028.9,025.9,000.0,037.5,030.4,15.5,0000.0,0007.86,0003.41,0002.95
2023-10-16 17:22:00,SystemResetWarning,0837.8,5.00,000.00,028.9,026.2,000.0,037.5,030.4,15.5,0000.0,0008.40,0003.43,0002.94
2023-10-16 17:23:00,SystemResetWarning,0837.8,5.00,000.00,028.9,026.5,000.0,037.5,030.4,15.7,0000.0,0008.28,0003.40,0002.94
2023-10-16 17:24:00,SystemResetWarning,0837.8,4.99,000.00,028.9,026.8,000.0,037.5,030.5,15.9,0000.0,0007.59,0003.41,0002.94
2023-10-16 17:25:00,SystemResetWarning,0837.8,5.00,000.00,028.9,027.0,000.0,037.5,030.5,16.0,0000.0,0007.32,0003.40,0002.92
2023-10-16 17:26:00,SystemResetWarning,0837.8,5.00,000.00,028.9,027.2,000.0,037.5,030.5,15.9,0000.0,0007.40,0003.40,0002.92
2023-10-16 17:27:00,SystemResetWarning,0837.8,5.00,000.00,028.9,027.3,000.0,037.5,030.6,15.9,0000.0,0007.65,0003.41,0002.92
2023-10-16 17:28:00,SystemResetWarning,0837.7,5.00,000.00,029.0,027.4,000.0,037.5,030.6,15.9,0000.0,0007.62,0003.40,0002.93
2023-10-16 17:29:00,SystemResetWarning,0837.7,5.00,000.00,029.0,027.6,000.0,037.5,030.7,15.8,0000.0,0007.51,0003.40,0002.92
2023-10-16 17:30:00,SystemResetWarning,0837.8,5.00,000.00,029.0,027.7,000.0,037.5,030.7,15.8,0000.0,0007.40,0003.36,0002.90
2023-10-16 17:31:00,SystemResetWarning,0837.8,5.01,000.00,029.0,027.8,000.0,037.5,030.7,15.9,0000.0,0007.94,0003.34,0002.91
2023-10-16 17:32:00,SystemResetWarning,0837.7,4.99,000.00,029.1,027.9,000.0,037.5,030.8,16.0,0000.0,0007.91,0003.33,0002.91
2023-10-16 17:33:00,SystemResetWarning,0837.8,4.98,000.00,029.1,027.9,000.0,037.5,030.8,16.0,0000.0,0007.24,0003.30,0002.93
2023-10-16 17:34:00,SystemResetWarning,0837.8,5.01,000.00,029.1,028.0,000.0,037.5,030.8,15.7,0000.0,0007.86,0003.30,0002.93
2023-10-16 17:35:00,SystemResetWarning,0837.7,5.01,000.00,029.2,028.0,000.0,037.6,030.9,15.5,0000.0,0009.29,0003.30,0002.94
2023-10-16 17:36:00,SystemResetWarning,0837.7,5.00,000.00,029.2,028.1,000.0,037.6,030.9,15.7,0000.0,0009.49,0003.29,0002.97
2023-10-16 17:37:00,SystemResetWarning,0837.7,4.99,000.00,029.2,028.1,000.0,037.6,031.0,15.4,0000.0,0009.96,0003.27,0002.98
2023-10-16 17:38:00,SystemResetWarning,0837.7,4.99,000.00,029.2,026.7,000.0,037.5,030.9,15.6,0000.0,0009.76,0003.27,0002.98
2023-10-16 17:39:00,SystemResetWarning,0837.7,5.00,000.00,029.1,024.9,000.0,037.5,030.6,15.5,0000.0,0009.82,0003.30,0002.98
2023-10-16 17:40:00,SystemResetWarning,0837.7,5.00,000.00,029.0,024.7,000.0,037.4,030.5,15.4,0000.0,0009.81,0003.30,0003.00
2023-10-16 17:41:00,SystemResetWarning,0837.6,5.02,000.00,028.9,025.0,000.0,037.4,030.3,15.6,0000.0,0010.43,0003.34,0003.01
2023-10-16 17:42:00,SystemResetWarning,0837.7,5.00,000.00,028.8,025.3,000.0,037.4,030.3,15.8,0000.0,0011.01,0003.37,0003.03
2023-10-16 17:43:00,SystemResetWarning,0837.6,5.00,000.00,028.8,025.7,000.0,037.4,030.3,15.6,0000.0,0010.67,0003.36,0003.04
2023-10-16 17:44:00,SystemResetWarning,0837.6,5.00,000.00,028.8,026.1,000.0,037.4,030.3,15.5,0000.0,0010.72,0003.38,0003.05
2023-10-16 17:45:00,SystemResetWarning,0837.7,5.00,000.00,028.8,026.4,000.0,037.4,030.3,15.5,0000.0,0010.35,0003.41,0003.07
2023-10-16 17:46:00,SystemResetWarning,0837.6,5.00,000.00,028.8,026.7,000.0,037.4,030.4,15.6,0000.0,0009.23,0003.43,0003.09
2023-10-16 17:47:00,SystemResetWarning,0837.7,5.00,000.00,028.8,026.9,000.0,037.4,030.4,15.6,0000.0,0009.04,0003.43,0003.10
2023-10-16 17:48:00,SystemResetWarning,0837.6,5.00,000.00,028.8,027.1,000.0,037.4,030.5,15.4,0000.0,0009.02,0003.46,0003.11
2023-10-16 17:49:00,SystemResetWarning,0837.7,5.00,000.00,028.8,027.3,000.0,037.4,030.5,15.5,0000.0,0009.69,0003.49,0003.12
2023-10-16 17:50:00,SystemResetWarning,0837.6,5.00,000.00,028.9,027.4,000.0,037.4,030.6,15.5,0000.0,0009.74,0003.50,0003.14
2023-10-16 17:51:00,SystemResetWarning,0837.6,5.00,000.00,028.9,027.5,000.0,037.4,030.6,15.4,0000.0,0009.92,0003.51,0003.15
2023-10-16 17:52:00,SystemResetWarning,0837.6,4.99,000.00,028.9,027.6,000.0,037.4,030.7,15.2,0000.0,0009.83,0003.53,0003.15
2023-10-16 17:53:00,SystemResetWarning,0837.7,4.99,000.00,029.0,027.7,000.0,037.4,030.7,15.2,0000.0,0009.47,0003.51,0003.15
2023-10-16 17:54:00,SystemResetWarning,0837.6,5.00,000.00,029.0,027.8,000.0,037.4,030.7,15.2,0000.0,0009.38,0003.50,0003.14
2023-10-16 17:55:00,SystemResetWarning,0837.6,5.00,000.00,029.0,027.9,000.0,037.4,030.8,15.3,0000.0,0009.77,0003.52,0003.15
2023-10-16 17:56:00,SystemResetWarning,0837.6,5.00,000.00,029.1,028.0,000.0,037.4,030.8,15.3,0000.0,0009.68,0003.53,0003.16
2023-10-16 17:57:00,SystemResetWarning,0837.6,4.99,000.00,029.1,027.8,000.0,037.4,030.8,15.4,0000.0,0009.76,0003.55,0003.17
2023-10-16 17:58:00,SystemResetWarning,0837.6,5.00,000.00,029.1,026.1,000.0,037.4,030.7,15.3,0000.0,0011.18,0003.58,0003.18
2023-10-16 17:59:00,SystemResetWarning,0837.6,5.00,000.00,028.9,024.7,000.0,037.3,030.4,15.5,0000.0,0011.15,0003.60,0003.20
